Weather History for Tacoma, WA

Change the Weather History Date:

Sunday, May 5, 2013

  Actual Average Record
Temperature  
Mean Temperature 63 °F -  
Max Temperature 82 °F 59 °F 82 °F (2013)
Min Temperature 44 °F 39 °F 32 °F (1959)
Degree Days  
Heating Degree Days 2    
Growing Degree Days 13 (Base 50)    
Moisture  
Dew Point 41 °F    
Average Humidity 44    
Maximum Humidity 87    
Minimum Humidity 21    
Precipitation  
Precipitation 0.00 in - - ()
Sea Level Pressure  
Sea Level Pressure 29.88 in    
Wind  
Wind Speed 6 mph (NE)    
Max Wind Speed 15 mph    
Max Gust Speed 22 mph    
Visibility 10 miles    
Events      
Averages and records for this station are not official NWS values.
T = Trace of Precipitation, MM = Missing Value Source: NWS Daily Summary

Daily Weather History Graph

Daily Weather History Graph

Search for Another Location

Airport:

Trip Planner

Search our weather history database for the weather conditions in past years. The results will help you decide how hot, cold, wet, or windy it might be!

Date:

Astronomy

May. 05, 2013 Rise Set
Actual Time 5:47 AM PDT 8:26 PM PDT
Civil Twilight 5:12 AM PDT 9:01 PM PDT
Nautical Twilight 4:28 AM PDT 9:45 PM PDT
Astronomical Twilight 3:37 AM PDT 10:37 PM PDT
Moon 3:37 AM PDT (5/5) 4:17 PM PDT (5/5)
Length of Visible Light 15h 48m
Length of Day
14h 39m
Waning Crescent, 17% of the Moon is Illuminated
May 5
Waning Crescent
May 9
New
May 17
First Quarter
May 24
Full
May 31
Last Quarter

Hourly Weather History & Observations

Time (PDT) Temp. Windchill Dew Point Humidity Pressure Visibility Wind Dir Wind Speed Gust Speed Precip Events Conditions
12:58 AM 64.4 °F - 39.2 °F 40% 29.99 in 10.0 mi NE 3.5 mph - N/A   Clear
1:58 AM 57.4 °F - 39.6 °F 51% 29.99 in 10.0 mi SW 2.3 mph - N/A   Clear
2:58 AM 49.8 °F - 40.3 °F 70% 29.98 in 10.0 mi SE 2.3 mph - N/A   Clear
3:58 AM 46.9 °F - 40.8 °F 79% 29.97 in 10.0 mi SSE 3.5 mph - N/A   Clear
4:58 AM 44.6 °F 43.1 °F 40.5 °F 85% 29.96 in 10.0 mi South 3.5 mph - N/A   Clear
5:58 AM 44.6 °F - 41.0 °F 87% 29.95 in 10.0 mi Calm Calm - N/A   Clear
6:58 AM 60.3 °F - 43.2 °F 53% 29.95 in 10.0 mi NE 5.8 mph - N/A   Clear
7:58 AM 62.1 °F - 44.2 °F 52% 29.95 in 10.0 mi North 5.8 mph - N/A   Clear
8:58 AM 65.8 °F - 43.5 °F 44% 29.93 in 10.0 mi NNE 9.2 mph - N/A   Clear
9:58 AM 70.2 °F - 43.3 °F 38% 29.92 in 10.0 mi NNE 12.7 mph 21.9 mph N/A   Clear
10:58 AM 72.5 °F - 43.5 °F 35% 29.91 in 10.0 mi NNE 13.8 mph - N/A   Clear
11:58 AM 75.9 °F - 43.3 °F 31% 29.90 in 10.0 mi North 13.8 mph - N/A   Clear
12:58 PM 77.7 °F - 41.2 °F 27% 29.88 in 10.0 mi NNE 11.5 mph - N/A   Clear
1:58 PM 80.6 °F - 39.7 °F 23% 29.86 in 10.0 mi NNE 9.2 mph - N/A   Clear
2:58 PM 82.2 °F - 41.2 °F 23% 29.84 in 10.0 mi NNE 15.0 mph 19.6 mph N/A   Clear
3:58 PM 82.6 °F - 39.2 °F 21% 29.82 in 10.0 mi NE 12.7 mph 17.3 mph N/A   Clear
4:58 PM 82.2 °F - 39.6 °F 22% 29.80 in 10.0 mi NNE 13.8 mph - N/A   Clear
5:58 PM 81.9 °F - 39.6 °F 22% 29.78 in 10.0 mi NNE 11.5 mph - N/A   Clear
6:58 PM 79.0 °F - 39.6 °F 24% 29.78 in 10.0 mi NNE 10.4 mph - N/A   Clear
7:58 PM 75.7 °F - 39.0 °F 27% 29.78 in 10.0 mi NNE 6.9 mph - N/A   Clear
8:58 PM 71.8 °F - 39.2 °F 31% 29.79 in 10.0 mi NE 3.5 mph - N/A   Clear
9:58 PM 67.6 °F - 41.5 °F 39% 29.81 in 10.0 mi Calm Calm - N/A   Clear
10:58 PM 57.4 °F - 42.6 °F 58% 29.82 in 10.0 mi South 3.5 mph - N/A   Clear
11:58 PM 51.4 °F - 42.8 °F 72% 29.83 in 10.0 mi Variable 2.3 mph - N/A   Clear